Location: Arboyeti
(42.1122°N, 44.6017°E)
Time: 05:08:53
(UTC+00:00)

Cosmos 2344 - Pass Details

Date: 19 April 2021
Orbit: 1241 x 3002 km, 63.3° (Epoch: 09 May)

Event Time Altitude Azimuth Distance (km) Brightness Sun altitude
Rises 16:02:03 0° 189° (S) 4,427 6.3 -3.4°
Reaches altitude 10° 16:05:09 10° 183° (S) 3,335 5.6 -4.0°
Maximum altitude 16:12:14 42° 115° (ESE) 1,696 3.8 -5.2°
Drops below altitude 10° 16:19:14 10° 47° (NE) 3,300 5.5 -6.4°
Sets 16:22:17 0° 41° (NE) 4,376 6.2 -6.9°
